Back to catalog

CZ-6A DEB

AliveSSO
NORAD 54567·DEBRIS·🇨🇳 China

Launched Nov 11, 2022 from Taiyuan Satellite Launch Center

Loading…

Next Passes (next 24 hours)

TLE

FreshSource: Space-Track

Epoch: Sep 14, 2026, 10:45 UTC

1 54567U 22151LT  26257.44837064 -.00000002  00000-0  23584-4 0  9995
2 54567  98.8631 253.6148 0056120 110.1460 250.5759 14.08362118197082

Track CZ-6A DEB in real time with AllMySat

Download on the App Store